FW8044 Weather Reports


time (UTC)temp
F
wind
direction
speed
knots
gust
knots
rain 1hr
in
rain 24hr
in
rain mn
in
humidity
%
barometer
mb
20260505200453 58 216 2.6 6.1 0.00 0.08 0.08 37 1011.7
20260505195948 58 266 0.9 5.2 0.00 0.08 0.08 36 1012.1
20260505195446 59 235 1.7 6.1 0.00 0.08 0.08 36 1012.0
20260505194943 60 263 2.6 8.7 0.00 0.08 0.08 36 1012.1
20260505194440 59 265 0.9 4.3 0.00 0.08 0.08 35 1012.1
20260505193940 59 266 2.6 4.3 0.00 0.08 0.08 36 1012.3
20260505193438 60 249 3.5 5.2 0.00 0.08 0.08 35 1012.0
20260505192935 59 248 1.7 2.6 0.00 0.08 0.08 36 1012.3
20260505192434 60 255 3.5 5.2 0.00 0.08 0.08 37 1012.6
20260505191931 59 223 0.9 2.6 0.00 0.08 0.08 37 1012.5
20260505191430 59 237 1.7 5.2 0.00 0.08 0.08 35 1012.3
20260505190926 59 212 2.6 5.2 0.00 0.08 0.08 36 1012.3
20260505190421 58 244 3.5 5.2 0.00 0.08 0.08 38 1012.2
20260505185916 57 257 1.7 2.6 0.00 0.08 0.08 38 1012.6
20260505185414 57 202 1.7 7.0 0.00 0.08 0.08 39 1012.2
20260505184910 58 222 4.3 5.2 0.00 0.08 0.08 37 1012.7
20260505184407 59 247 1.7 4.3 0.00 0.08 0.08 37 1012.6
20260505183904 59 216 0.9 4.3 0.00 0.08 0.08 36 1012.6
20260505183401 58 259 1.7 2.6 0.00 0.08 0.08 37 1012.8
20260505182857 57 248 0.0 2.6 0.00 0.08 0.08 39 1012.7
20260505182355 57 222 0.9 4.3 0.00 0.08 0.08 39 1012.7
20260505181851 57 277 1.7 2.6 0.00 0.08 0.08 40 1012.9
20260505181349 57 249 2.6 2.6 0.00 0.08 0.08 41 1013.1
20260505180845 58 203 2.6 2.6 0.00 0.08 0.08 38 1012.9
20260505180342 57 289 0.0 1.7 0.00 0.08 0.08 36 1012.9
20260505175839 57 258 0.9 5.2 0.00 0.08 0.08 39 1012.9
20260505175334 58 268 0.9 6.1 0.00 0.08 0.08 39 1013.1
20260505174831 57 234 2.6 2.6 0.00 0.08 0.08 39 1013.2
20260505174329 57 344 1.7 2.6 0.00 0.08 0.08 37 1012.9
20260505173825 58 265 2.6 4.3 0.00 0.08 0.08 36 1013.0
20260505173321 57 267 0.9 2.6 0.00 0.08 0.08 35 1013.5
20260505172819 57 10 2.6 2.6 0.00 0.08 0.08 35 1013.3
20260505172316 57 332 1.7 2.6 0.00 0.08 0.08 38 1013.3
20260505171815 59 227 3.5 4.3 0.00 0.08 0.08 36 1013.4
20260505171313 59 252 3.5 4.3 0.00 0.08 0.08 36 1013.3
20260505170809 58 337 2.6 4.3 0.00 0.08 0.08 38 1013.3
20260505170306 57 329 2.6 4.3 0.00 0.08 0.08 39 1013.5
20260505165801 57 257 0.9 2.6 0.00 0.08 0.08 39 1013.2
20260505165257 57 218 2.6 5.2 0.00 0.08 0.08 41 1013.4
20260505164753 56 249 3.5 4.3 0.00 0.08 0.08 42 1013.2
20260505164250 57 274 1.7 2.6 0.00 0.08 0.08 43 1013.3
20260505163748 57 336 2.6 2.6 0.00 0.08 0.08 45 1013.4
20260505163247 56 281 0.9 2.6 0.00 0.08 0.08 45 1013.2
20260505162744 55 277 0.9 4.3 0.00 0.08 0.08 45 1013.3
20260505162241 56 289 1.7 4.3 0.00 0.08 0.08 46 1013.0
20260505161738 57 255 2.6 4.3 0.00 0.08 0.08 43 1013.3
20260505161235 57 285 0.9 1.7 0.00 0.08 0.08 43 1013.4
20260505160732 56 252 1.7 2.6 0.00 0.08 0.08 45 1013.2
20260505160230 54 174 0.9 1.7 0.00 0.08 0.08 44 1013.2
20260505153209 54 336 0.9 1.7 0.00 0.08 0.08 48 1013.1
20260505152706 54 251 0.0 0.9 0.00 0.08 0.08 51 1013.0
20260505152202 53 337 1.7 2.6 0.00 0.08 0.08 48 1013.1
20260505151657 53 267 1.7 2.6 0.00 0.08 0.08 53 1012.9
20260505151155 53 196 1.7 1.7 0.00 0.08 0.08 51 1012.9
20260505150651 53 234 0.0 1.7 0.00 0.08 0.08 54 1012.8
20260505150149 52 242 0.9 2.6 0.00 0.08 0.08 57 1012.8
20260505140617 49 217 1.7 1.7 0.00 0.08 0.08 70 1012.3
20260505140114 49 258 0.9 1.7 0.00 0.08 0.08 69 1012.5
20260505125030 48 250 0.0 0.9 0.05 0.08 0.08 79 1011.0
20260505124527 47 249 0.0 0.0 0.05 0.08 0.08 81 1011.4
20260505124023 47 241 0.0 0.0 0.00 0.07 0.07 82 1011.3
20260505123520 47 235 0.0 0.9 0.00 0.07 0.07 84 1011.3
20260505123016 46 225 0.9 0.9 0.00 0.07 0.07 86 1011.4
20260505122513 46 215 0.9 1.7 0.00 0.07 0.07 88 1011.7
20260505122010 45 239 0.0 0.9 0.00 0.07 0.07 89 1011.9
20260505121506 45 223 0.9 0.9 0.00 0.07 0.07 89 1011.8
20260505121003 45 212 0.9 0.9 0.00 0.07 0.07 89 1011.6
20260505120459 45 235 0.9 0.9 0.00 0.07 0.07 90 1011.8
20260505115958 45 244 0.0 0.9 0.00 0.07 0.07 91 1011.8
20260505115455 44 251 0.9 1.7 0.00 0.07 0.07 92 1011.7
20260505114953 44 238 0.9 1.7 0.00 0.07 0.07 93 1011.7
20260505114449 44 229 0.9 1.7 0.00 0.07 0.07 93 1011.8
20260505113946 44 245 0.9 2.6 0.00 0.07 0.07 93 1011.9
20260505113442 44 246 0.9 1.7 0.00 0.07 0.07 93 1011.8
20260505112937 44 226 0.9 1.7 0.00 0.07 0.07 93 1011.7
20260505112435 44 227 0.9 0.9 0.00 0.07 0.07 93 1011.9
20260505111931 44 205 1.7 1.7 0.00 0.07 0.07 93 1011.8
20260505111426 44 222 1.7 1.7 0.00 0.07 0.07 93 1011.9
20260505110923 44 238 0.0 1.7 0.00 0.07 0.07 94 1011.7
20260505110420 44 241 0.9 1.7 0.00 0.07 0.07 94 1011.9
20260505101851 45 256 0.0 0.9 0.00 0.07 0.07 93 1010.9
20260505101346 45 256 0.0 0.0 0.00 0.07 0.07 93 1010.7
20260505100841 45 246 0.0 0.9 0.00 0.07 0.07 93 1010.7
20260505100338 45 252 0.0 0.0 0.00 0.07 0.07 93 1010.6
20260505095834 45 235 0.0 0.9 0.00 0.07 0.07 93 1010.5
20260505095332 45 246 0.0 0.9 0.00 0.07 0.07 93 1010.8
20260505094827 45 263 0.0 0.0 0.00 0.07 0.07 93 1010.5
20260505094325 46 248 0.0 0.9 0.00 0.07 0.07 93 1010.8
20260505093820 46 241 0.0 0.9 0.00 0.07 0.07 93 1010.9
20260505093318 46 245 0.0 0.0 0.00 0.07 0.07 93 1010.4
20260505092814 46 250 0.0 0.0 0.00 0.07 0.07 92 1010.0
20260505092313 46 254 0.0 0.0 0.00 0.07 0.07 92 1009.8
20260505091810 46 250 0.0 0.0 0.00 0.07 0.07 92 1009.6
20260505091308 46 243 0.0 0.0 0.00 0.07 0.07 91 1009.7
20260505090806 46 238 0.9 0.9 0.00 0.07 0.07 91 1009.9
20260505090304 46 260 0.0 0.0 0.00 0.07 0.07 91 1009.6
20260505085800 46 265 0.0 0.0 0.00 0.07 0.07 90 1009.2
20260505085259 46 250 0.0 0.0 0.00 0.07 0.07 90 1009.5
20260505084755 46 238 0.9 0.9 0.00 0.07 0.07 90 1010.0
20260505084249 46 245 0.0 0.9 0.00 0.07 0.07 90 1009.8
20260505083746 46 232 0.9 1.7 0.00 0.07 0.07 90 1009.5
20260505083242 46 242 0.0 0.9 0.00 0.07 0.07 90 1009.0
20260505082739 46 198 0.0 0.9 0.00 0.07 0.07 89 1008.4
20260505082236 46 200 0.9 0.9 0.00 0.07 0.07 88 1009.3
20260505081732 46 238 0.9 0.9 0.00 0.07 0.07 88 1009.6
20260505081229 46 238 0.0 1.7 0.00 0.07 0.07 88 1009.7
20260505080726 46 252 0.0 0.0 0.00 0.07 0.07 88 1009.6
20260505080221 46 254 0.9 0.9 0.00 0.07 0.07 86 1008.8
20260505075717 46 251 0.0 0.0 0.00 0.07 0.07 85 1008.0
20260505075215 46 256 0.0 0.9 0.00 0.07 0.07 84 1007.8
20260505074712 46 240 0.0 0.9 0.07 0.07 0.07 84 1008.1
20260505074209 47 246 0.0 0.0 0.12 0.07 0.07 83 1008.2
20260505073707 47 244 0.0 0.9 0.05 0.06 0.06 79 1008.2
20260505073204 47 288 0.9 2.6 0.00 0.05 0.05 76 1008.3
20260505072700 47 350 3.5 5.2 0.00 0.05 0.05 79 1008.4
20260505072156 47 295 0.9 1.7 0.07 0.05 0.05 81 1009.0
20260505071652 47 258 0.0 0.9 0.07 0.05 0.05 79 1009.1
20260505071150 47 272 0.9 1.7 0.05 0.04 0.04 78 1008.6
20260505070647 47 265 0.9 1.7 0.05 0.04 0.04 78 1008.1
20260505070143 47 353 0.9 2.6 0.07 0.03 0.03 75 1008.5
20260505065639 48 287 1.7 6.1 0.05 0.02 0.02 72 1009.2
20260505065136 48 293 0.9 2.6 0.05 0.02 0.02 72 1009.0
20260505064633 49 319 1.7 2.6 0.00 0.01 0.01 67 1008.8
20260505064131 49 344 3.5 7.0 0.07 0.01 0.01 65 1009.0
20260505063628 50 294 2.6 7.8 0.07 0.01 0.01 65 1009.6
20260505063124 50 327 3.5 7.0 0.00 0.00 0.00 62 1009.6
20260505062621 51 344 1.7 6.1 0.00 0.00 0.00 59 1009.8
20260505062118 51 350 3.5 5.2 0.00 0.00 0.00 56 1009.8
20260505061615 51 324 0.9 2.6 0.00 0.00 0.00 56 1009.5
20260505061113 52 334 1.7 4.3 0.00 0.00 0.00 54 1009.4
20260505060611 52 326 2.6 5.2 0.00 0.00 0.00 51 1009.2
20260505060107 52 359 2.6 6.1 0.00 0.00 0.00 50 1009.1
20260505055602 52 118 1.7 2.6 0.00 0.00 0.00 51 1009.2
20260505055059 53 279 0.9 4.3 0.00 0.00 0.00 51 1009.1
20260505054556 53 26 7.0 9.6 0.00 0.00 0.00 46 1009.2
20260505054055 53 254 0.0 1.7 0.00 0.00 0.00 46 1009.2
20260505053551 53 132 2.6 7.0 0.00 0.00 0.00 46 1008.6
20260505053048 53 356 1.7 5.2 0.00 0.00 0.00 45 1008.4
20260505052545 53 336 4.3 11.3 0.00 0.00 0.00 44 1008.3
20260505052043 54 6 4.3 7.0 0.00 0.00 0.00 44 1008.0
20260505051539 54 357 7.0 7.8 0.00 0.00 0.00 44 1008.0
20260505051037 54 6 5.2 7.0 0.00 0.00 0.00 43 1008.2
20260505050535 54 327 4.3 7.0 0.00 0.00 0.00 44 1008.1
20260505041503 56 0 2.6 7.8 0.00 0.00 0.00 41 1007.8
20260505041000 56 327 6.1 11.3 0.00 0.00 0.00 40 1007.8
20260505040458 56 329 2.6 7.8 0.00 0.00 0.00 39 1007.7
20260505035954 56 27 3.5 12.2 0.00 0.00 0.00 39 1007.8
20260505035450 56 345 5.2 12.2 0.00 0.00 0.00 38 1007.9
20260505034948 56 313 0.9 5.2 0.00 0.00 0.00 38 1007.9
20260505034444 56 324 1.7 4.3 0.00 0.00 0.00 39 1007.7
20260505033941 56 342 2.6 12.2 0.00 0.00 0.00 38 1007.7
20260505033438 56 327 3.5 6.1 0.00 0.00 0.00 38 1007.8
20260505032936 56 335 4.3 6.1 0.00 0.00 0.00 38 1008.0
20260505032433 57 200 2.6 6.1 0.00 0.00 0.00 38 1007.8
20260505031929 57 20 4.3 6.1 0.00 0.00 0.00 36 1007.8
20260505031427 57 276 2.6 12.2 0.00 0.00 0.00 37 1007.5
20260505030923 57 280 1.7 7.8 0.00 0.00 0.00 37 1007.2
20260505030419 57 8 4.3 9.6 0.00 0.00 0.00 37 1007.3
20260505025915 57 0 5.2 9.6 0.00 0.00 0.00 38 1007.5
20260505025412 58 295 2.6 14.8 0.00 0.00 0.00 37 1007.5
20260505024911 58 19 3.5 8.7 0.00 0.00 0.00 38 1007.3
20260505024408 58 337 9.6 14.8 0.00 0.00 0.00 37 1007.4
20260505023905 58 1 3.5 12.2 0.00 0.00 0.00 37 1007.2
20260505023402 59 336 2.6 5.2 0.00 0.00 0.00 37 1007.0
20260505022859 59 346 5.2 7.0 0.00 0.00 0.00 36 1007.1
20260505022356 59 332 6.1 13.0 0.00 0.00 0.00 35 1006.7
20260505021854 59 348 2.6 6.1 0.00 0.00 0.00 35 1006.3
20260505021350 59 336 2.6 8.7 0.00 0.00 0.00 35 1006.5
20260505020846 60 274 3.5 13.0 0.00 0.00 0.00 34 1006.4
20260505020341 60 277 2.6 9.6 0.00 0.00 0.00 34 1006.3
20260505015838 61 312 2.6 9.6 0.00 0.00 0.00 35 1006.1
20260505015336 61 282 2.6 11.3 0.00 0.00 0.00 35 1006.0
20260505014833 62 356 2.6 6.1 0.00 0.00 0.00 35 1005.8
20260505014330 62 51 6.1 7.8 0.00 0.00 0.00 34 1005.6
20260505013826 63 311 2.6 4.3 0.00 0.00 0.00 33 1005.5
20260505013324 64 355 5.2 7.8 0.00 0.00 0.00 31 1005.1
20260505012822 64 332 3.5 7.0 0.00 0.00 0.00 31 1005.1
20260505012319 64 5 4.3 11.3 0.00 0.00 0.00 31 1004.8
20260505011815 65 23 4.3 13.0 0.00 0.00 0.00 30 1004.9
20260505011312 66 358 5.2 8.7 0.00 0.00 0.00 29 1004.5
20260505010808 66 333 2.6 5.2 0.00 0.00 0.00 29 1004.5
20260505010304 66 353 4.3 13.9 0.00 0.00 0.00 29 1004.3
20260505005800 67 323 7.8 13.9 0.00 0.00 0.00 28 1004.4
20260505005258 67 228 4.3 9.6 0.00 0.00 0.00 28 1004.0
20260505004755 67 259 2.6 8.7 0.00 0.00 0.00 29 1003.9
20260505004251 68 9 2.6 7.0 0.00 0.00 0.00 29 1004.0
20260505003748 68 253 5.2 9.6 0.00 0.00 0.00 28 1003.7
20260505003246 69 325 9.6 12.2 0.00 0.00 0.00 27 1003.8
20260505002742 70 292 6.1 8.7 0.00 0.00 0.00 28 1003.5
20260505002240 70 229 4.3 8.7 0.00 0.00 0.00 28 1003.2
20260505001737 71 92 4.3 7.0 0.00 0.00 0.00 27 1003.2
20260505001234 72 310 4.3 6.1 0.00 0.00 0.00 28 1003.0
20260505000731 72 334 2.6 4.3 0.00 0.00 0.00 26 1003.0
20260505000229 73 340 4.3 6.1 0.00 0.00 0.00 26 1002.7
20260504235725 73 12 4.3 12.2 0.00 0.00 0.00 26 1002.9
20260504235221 74 266 4.3 13.0 0.00 0.00 0.00 26 1002.8
20260504234719 74 257 2.6 5.2 0.00 0.00 0.00 26 1002.9
20260504234216 75 80 3.5 7.0 0.00 0.00 0.00 25 1002.8
20260504233712 75 338 5.2 7.8 0.00 0.00 0.00 24 1002.7
20260504233208 75 244 4.3 11.3 0.00 0.00 0.00 25 1002.7
20260504232706 76 324 4.3 12.2 0.00 0.00 0.00 24 1002.4
20260504232202 76 341 3.5 5.2 0.00 0.00 0.00 26 1002.4
20260504231659 76 32 2.6 7.0 0.00 0.00 0.00 26 1002.2
20260504231155 77 313 3.5 8.7 0.00 0.00 0.00 25 1002.5
20260504230652 77 316 4.3 7.0 0.00 0.00 0.00 24 1002.3
20260504230151 78 11 9.6 17.4 0.00 0.00 0.00 25 1002.1
20260504225649 78 344 4.3 5.2 0.00 0.00 0.00 25 1002.3
20260504225144 77 6 1.7 5.2 0.00 0.00 0.00 27 1002.1
20260504224641 77 314 6.1 11.3 0.00 0.00 0.00 24 1001.8
20260504224138 77 15 4.3 14.8 0.00 0.00 0.00 26 1002.0
20260504223636 77 311 7.0 12.2 0.00 0.00 0.00 24 1002.1
20260504223131 78 16 4.3 13.9 0.00 0.00 0.00 25 1001.4
20260504222628 79 19 7.8 13.0 0.00 0.00 0.00 25 1001.4
20260504222125 80 28 4.3 7.8 0.00 0.00 0.00 27 1001.5
20260504221622 81 18 2.6 6.1 0.00 0.00 0.00 26 1001.4
20260504221119 81 347 1.7 8.7 0.00 0.00 0.00 26 1001.0
20260504220615 81 252 1.7 6.1 0.00 0.00 0.00 28 1001.0
20260504220114 81 302 4.3 12.2 0.00 0.00 0.00 27 1001.1
20260504215609 83 42 7.8 11.3 0.00 0.00 0.00 26 1001.0
20260504215107 83 261 0.9 4.3 0.00 0.00 0.00 27 1000.8
20260504214603 83 285 2.6 7.8 0.00 0.00 0.00 27 1000.7
20260504214059 84 242 0.9 4.3 0.00 0.00 0.00 27 1000.7
20260504213555 84 258 0.9 4.3 0.00 0.00 0.00 26 1000.7
20260504213052 83 263 1.7 4.3 0.00 0.00 0.00 28 1000.4
20260504212548 81 257 1.7 5.2 0.00 0.00 0.00 28 1000.7
20260504212046 81 23 1.7 5.2 0.00 0.00 0.00 28 1000.8
20260504211543 82 250 0.9 2.6 0.00 0.00 0.00 27 1000.6
20260504211040 83 307 3.5 4.3 0.00 0.00 0.00 26 1000.6
20260504210537 84 249 1.7 5.2 0.00 0.00 0.00 25 1000.6
20260504210033 86 356 4.3 8.7 0.00 0.00 0.00 22 1000.7
20260504205531 86 2 2.6 5.2 0.00 0.00 0.00 21 1000.5
20260504205029 86 247 4.3 6.1 0.00 0.00 0.00 20 1000.6
20260504204527 86 346 3.5 7.0 0.00 0.00 0.00 20 1000.6
20260504204026 85 290 7.0 8.7 0.00 0.00 0.00 21 1000.7
20260504203523 85 305 4.3 7.8 0.00 0.00 0.00 20 1000.8
20260504203021 85 321 3.5 7.0 0.00 0.00 0.00 20 1000.6
20260504202516 85 326 4.3 7.8 0.00 0.00 0.00 21 1000.7
20260504202013 84 220 3.5 6.1 0.00 0.00 0.00 21 1000.9
20260504201510 84 269 4.3 8.7 0.00 0.00 0.00 20 1001.0
20260504201008 84 300 2.6 8.7 0.00 0.00 0.00 22 1000.9